[[{"header":{"parameterUnit":"m.s-1","parameterCategory":1,"la1":30.2991,"la2":30.254,"lo1":-89.0895,"lo2":-89.0444,"dy":0.0017,"dx":0.0017,"nx":28,"ny":28,"refTime":"2023-08-04T21:00:00:Z","depth":0,"parameterNumber":2,"parameterNumberName":"U-component_of_WINDS"},"data":[0,0,0,0,0,0,0,0,0,0,0,0,0,0,0,0,0,0,0,0,0,0,0,0,0,0,0,0,0,0,0,0,0,0,0,0,0,0,0,0,0,0,0,0,0,0,0,0,0,0,0,0,0,0,0,0,0,0,2.0676,2.0677,0,2.0768,2.0769,2.077,2.0739,2.0736,2.0734,2.0732,2.0834,2.0839,2.0843,0,0,0,0,0,0,0,0,0,0,0,0,0,2.0479,2.0483,2.0676,2.0677,2.0678,2.0768,2.0769,2.0771,2.0739,2.0736,2.0734,2.0732,2.0833,2.0838,2.0844,0,0,0,0,0,0,0,0,0,0,0,0,0,2.0567,2.0484,2.0676,2.0673,2.0674,2.0768,2.0769,2.0771,2.0739,2.0736,2.0733,2.073,2.0831,2.0838,2.0845,2.0949,0,0,2.0866,2.0869,0,0,0,0,0,0,0,0,2.0562,2.0575,2.0672,2.0673,2.0674,2.0738,2.0737,2.0831,2.074,2.0715,2.0732,2.0729,2.0805,2.0814,2.0839,2.0954,2.0958,2.0866,2.0871,2.0874,2.0876,0,0,0,0,0,0,0,2.0556,2.0571,2.0712,2.0674,2.0675,2.0669,2.0679,2.0755,2.0777,2.0717,2.0714,2.0726,2.0805,2.0832,2.0841,2.096,2.0866,2.0872,2.0877,2.0879,2.1167,2.117,0,0,0,0,0,0,2.0549,2.0566,2.071,2.0715,2.0609,2.0675,2.0686,2.0721,2.0775,2.0781,2.0728,2.0724,2.0822,2.0833,2.0844,2.0971,2.0874,2.088,2.0884,2.1164,2.1168,2.1171,0,0,0,0,0,0,2.0544,2.0562,2.0706,2.064,2.0658,2.0682,2.0722,2.0725,2.0751,2.0784,2.0788,2.0751,2.082,2.0835,2.0923,2.0974,2.0883,2.089,2.1159,2.1165,2.117,2.1225,0,0,0,0,0,0,2.0539,2.056,2.0599,2.0641,2.0661,2.0781,2.0725,2.0729,2.0762,2.0757,2.0806,2.0812,2.0818,2.0913,2.093,2.0982,2.0895,2.1155,2.1162,2.1168,2.1219,2.1231,2.1242,0,0,0,0,0,2.0532,2.0612,2.0601,2.0618,2.0709,2.0784,2.0796,2.08,2.0766,2.0806,2.0828,2.081,2.0965,2.0922,2.0941,2.0996,2.1152,2.116,2.1167,2.1213,2.1229,2.1242,0,0,0,0,0,0,2.0578,2.0617,2.0605,2.0701,2.0739,2.0778,2.0829,2.0816,2.0867,2.086,2.0865,2.0877,2.0968,2.0991,2.0942,2.1101,2.1054,2.1066,2.1082,2.1097,2.1109,2.1102,2.0901,0,0,0,0,0,2.0598,2.0653,2.0686,2.0767,2.0787,2.0805,2.0837,2.0837,2.0878,2.0894,2.0922,2.0964,2.1023,2.1061,2.1117,2.1221,2.1233,2.1269,2.128,2.129,2.1301,2.1359,2.1376,2.1197,2.1197,2.1197,0,0,2.0642,2.0671,2.0706,2.0777,2.0806,2.0866,2.0818,2.0883,2.0928,2.0905,2.099,2.1012,2.1059,2.1157,2.1201,2.1179,2.1352,2.13,2.1307,2.1313,2.1369,2.1386,2.1401,2.1202,2.1202,2.1201,0,0,2.0753,2.0779,2.085,2.088,2.0925,2.0936,2.0953,2.0995,2.1008,2.1092,2.1077,2.1131,2.1231,2.1266,2.1297,2.1421,2.1408,2.1439,2.1501,2.1558,2.1572,2.1585,2.163,2.1646,2.145,2.145,2.145,0,2.0803,2.0889,2.0889,2.0955,2.0987,2.0967,2.104,2.107,2.1132,2.1156,2.1129,2.1254,2.1285,2.1391,2.1421,2.1446,2.1467,2.1434,2.157,2.1582,2.1594,2.1638,2.1655,2.1453,2.1453,2.1453,2.1452,0,2.0949,2.1009,2.1061,2.1119,2.1157,2.1227,2.1239,2.1279,2.1275,2.129,2.1377,2.1413,2.1476,2.1501,2.1499,2.1607,2.1592,2.1567,2.1521,2.1615,2.1656,2.1672,2.1459,2.1457,2.1456,2.1455,0,0,2.1091,2.1147,2.1167,2.1193,2.124,2.1288,2.1357,2.1416,2.1451,2.1494,2.1554,2.1639,2.1616,2.1651,2.1653,2.1703,2.1801,2.1673,2.1674,2.1696,2.1923,2.1942,2.1961,2.1791,2.1794,2.1797,2.192,0,2.1207,2.1325,2.1327,2.1438,2.1494,2.1476,2.1537,2.1574,2.159,2.1642,2.166,2.1721,2.1686,2.1707,2.1756,2.1778,2.1846,2.1769,2.1849,2.1852,2.1838,2.1982,2.2002,2.2115,2.1935,2.1938,2.194,0,2.1357,2.1403,2.1518,2.1558,2.1582,2.1636,2.169,2.174,2.1782,2.1791,2.1829,2.1824,2.1897,2.1847,2.1949,2.1897,2.1929,2.1945,2.195,2.1958,2.1902,2.1995,2.2152,2.2169,2.1965,2.1963,2.1961,0,2.145,2.1541,2.1622,2.1645,2.1693,2.1732,2.1754,2.1793,2.1829,2.1878,2.1901,2.1958,2.199,2.2036,2.2047,2.2009,2.2149,2.21,2.216,2.216,2.2191,2.2189,2.2356,2.2211,2.2211,2.221,2.221,0,2.1579,2.1651,2.1664,2.1714,2.1795,2.1797,2.1877,2.1897,2.1932,2.1987,2.1976,2.2028,2.2039,2.2094,2.2104,2.2187,2.2202,2.2212,2.2214,2.2214,2.2212,2.2236,2.2229,2.2215,2.2214,2.2213,2.2212,0,2.1698,2.1709,2.1796,2.1834,2.1846,2.1903,2.1937,2.1986,2.2,2.207,2.2087,2.2111,2.2175,2.219,2.2268,2.2274,2.2373,2.2367,2.2358,2.2358,2.2418,2.2412,2.2606,2.2632,2.2469,2.2471,2.2472,0,2.1779,2.1834,2.1877,2.1912,2.1936,2.1993,2.2028,2.2034,2.2072,2.2124,2.2168,2.223,2.2281,2.2385,2.2411,2.247,2.2466,2.253,2.2475,2.2473,2.2468,2.2465,2.2471,2.2541,2.2542,2.2544,2.2545,0,2.1924,2.1927,2.1978,2.2031,2.2073,2.2116,2.2157,2.2187,2.2198,2.2242,2.2307,2.2346,2.2424,2.2487,2.2547,2.2572,2.2562,2.2562,2.2579,2.258,2.2572,2.2578,2.2388,2.2558,2.2556,2.2555,2.2555,2.2554,2.2027,2.2075,2.2113,2.217,2.2201,2.2239,2.2287,2.2307,2.236,2.2422,2.2423,2.2494,2.2537,2.2615,2.2644,2.2701,2.2682,2.2707,2.2713,2.2719,2.2725,2.2562,2.2712,2.2712,2.2712,2.2711,2.2711,0,2.2172,2.2195,2.2248,2.2304,2.235,2.2333,2.2377,2.2417,2.2479,2.2518,2.2568,2.2643,2.2704,2.2734,2.2795,2.2835,2.2832,2.2851,2.2849,2.2855,2.2738,2.2718,2.2853,2.2853,2.2853,2.2853,2.2853,2.2853,2.2252,2.2332,2.234,2.2436,2.2459,2.2527,2.2554,2.259,2.2621,2.2705,2.2755,2.2773,2.2809,2.2873,2.2929,2.2936,2.296,2.2982,2.2987,2.2878,2.2863,2.285,2.283,2.2987,2.2987,2.3099,2.31,2.3101]},{"header":{"parameterUnit":"m.s-1","parameterCategory":1,"la1":30.2991,"la2":30.254,"lo1":-89.0895,"lo2":-89.0444,"dy":0.0017,"dx":0.0017,"nx":28,"ny":28,"refTime":"2023-08-04T21:00:00:Z","depth":0,"parameterNumber":3,"parameterNumberName":"V-component_of_WINDS"},"data":[0,0,0,0,0,0,0,0,0,0,0,0,0,0,0,0,0,0,0,0,0,0,0,0,0,0,0,0,0,0,0,0,0,0,0,0,0,0,0,0,0,0,0,0,0,0,0,0,0,0,0,0,0,0,0,0,0,0,3.224,3.2241,0,3.2281,3.2281,3.2281,3.2298,3.2298,3.2298,3.2298,3.2336,3.2337,3.2338,0,0,0,0,0,0,0,0,0,0,0,0,0,3.2172,3.2173,3.224,3.2241,3.2241,3.228,3.2281,3.2282,3.2298,3.2298,3.2298,3.2298,3.2335,3.2337,3.2338,0,0,0,0,0,0,0,0,0,0,0,0,0,3.2206,3.2174,3.224,3.2254,3.2256,3.228,3.2281,3.2282,3.2298,3.2298,3.2298,3.2298,3.2335,3.2336,3.2338,3.235,0,0,3.2343,3.2344,0,0,0,0,0,0,0,0,3.2204,3.2208,3.2252,3.2253,3.2255,3.2284,3.2271,3.2304,3.2298,3.2282,3.2298,3.2298,3.2318,3.2321,3.2329,3.2352,3.2353,3.2343,3.2344,3.2345,3.2345,0,0,0,0,0,0,0,3.2202,3.2207,3.2256,3.2252,3.2254,3.2257,3.2262,3.2277,3.23,3.2283,3.2285,3.229,3.2319,3.2327,3.233,3.2354,3.2343,3.2344,3.2345,3.2346,3.2386,3.2386,0,0,0,0,0,0,3.2197,3.2205,3.2255,3.2257,3.2229,3.2258,3.2263,3.2275,3.23,3.2304,3.229,3.229,3.2325,3.2328,3.2331,3.2346,3.2345,3.2346,3.2347,3.2386,3.2386,3.2386,0,0,0,0,0,0,3.2196,3.2202,3.2253,3.2231,3.2238,3.226,3.2272,3.2276,3.2284,3.2305,3.2308,3.2294,3.2325,3.2329,3.2345,3.2348,3.2347,3.2348,3.2386,3.2386,3.2386,3.2376,0,0,0,0,0,0,3.2194,3.2201,3.2207,3.2231,3.2239,3.2268,3.2273,3.2277,3.2287,3.2288,3.231,3.2313,3.2325,3.2343,3.2347,3.235,3.235,3.2386,3.2386,3.2386,3.2376,3.2376,3.2375,0,0,0,0,0,3.2191,3.2203,3.2208,3.2214,3.2248,3.2268,3.2272,3.2286,3.2287,3.2293,3.2306,3.2313,3.2347,3.2344,3.2349,3.2352,3.2386,3.2386,3.2386,3.2376,3.2376,3.2375,0,0,0,0,0,0,3.2178,3.2206,3.2212,3.2232,3.2247,3.2271,3.2278,3.2286,3.23,3.2301,3.2316,3.2321,3.2335,3.2345,3.2342,3.2364,3.2366,3.2368,3.2357,3.2357,3.2357,3.2354,3.2351,0,0,0,0,0,3.2177,3.2192,3.2216,3.223,3.2238,3.2257,3.2266,3.2275,3.2292,3.2298,3.2312,3.2327,3.234,3.2349,3.2363,3.2377,3.2381,3.2382,3.2381,3.2381,3.2382,3.2388,3.2388,3.2387,3.2387,3.2387,0,0,3.2175,3.2193,3.2202,3.2228,3.2241,3.2255,3.2262,3.2277,3.2287,3.23,3.2316,3.2327,3.2344,3.2358,3.2365,3.2367,3.2383,3.2381,3.2381,3.2382,3.2389,3.2389,3.2389,3.2387,3.2387,3.2387,0,0,3.218,3.2195,3.2209,3.2222,3.2242,3.2254,3.2257,3.2279,3.2286,3.2303,3.2312,3.2323,3.2347,3.2359,3.2367,3.2373,3.238,3.2377,3.2375,3.2381,3.2382,3.2382,3.2383,3.2383,3.2378,3.2378,3.2378,0,3.2175,3.2198,3.2214,3.2228,3.2239,3.2252,3.2264,3.2275,3.2298,3.2304,3.2306,3.2335,3.2348,3.2364,3.2366,3.2373,3.2375,3.2375,3.2381,3.2381,3.2381,3.2382,3.2383,3.2377,3.2378,3.2378,3.2378,0,3.2191,3.2206,3.2214,3.2237,3.2248,3.2261,3.2277,3.2286,3.2294,3.2305,3.232,3.2335,3.2352,3.2356,3.2364,3.2374,3.2374,3.2378,3.238,3.2381,3.2382,3.2383,3.2377,3.2377,3.2377,3.2377,0,0,3.2189,3.2219,3.2222,3.2231,3.2254,3.2265,3.2277,3.2294,3.2301,3.2316,3.2326,3.2345,3.2348,3.2358,3.2367,3.2372,3.2374,3.2375,3.2376,3.2374,3.2384,3.2381,3.2381,3.2378,3.2379,3.2379,3.2382,0,3.2196,3.2221,3.2234,3.2252,3.2266,3.2277,3.2288,3.2301,3.2311,3.2323,3.2333,3.2346,3.235,3.2356,3.2362,3.2373,3.2376,3.2373,3.2386,3.2387,3.2382,3.2382,3.2379,3.2382,3.2383,3.2383,3.2383,0,3.2208,3.2223,3.2243,3.2262,3.2268,3.2277,3.2293,3.2304,3.2319,3.2325,3.2336,3.2344,3.2356,3.2357,3.2372,3.2369,3.2375,3.2381,3.2382,3.2384,3.2385,3.2383,3.2383,3.2383,3.2384,3.2384,3.2384,0,3.2203,3.2228,3.2243,3.2251,3.2274,3.228,3.2289,3.2304,3.2313,3.2326,3.2331,3.2345,3.2352,3.2362,3.2373,3.2373,3.2386,3.2389,3.2391,3.2391,3.2394,3.2393,3.2394,3.2398,3.2398,3.2398,3.2398,0,3.221,3.2221,3.2241,3.225,3.2263,3.2277,3.2288,3.2298,3.2311,3.232,3.2331,3.2339,3.2354,3.2363,3.2372,3.2383,3.2386,3.2391,3.2393,3.239,3.2389,3.2394,3.2394,3.2398,3.2398,3.2398,3.2398,0,3.2207,3.2221,3.2238,3.2258,3.2263,3.2271,3.2287,3.2295,3.2305,3.2317,3.2321,3.2336,3.2348,3.236,3.2376,3.2382,3.2392,3.2395,3.2387,3.2388,3.2389,3.2389,3.2393,3.2394,3.2397,3.2397,3.2397,0,3.221,3.2219,3.224,3.2247,3.2257,3.2269,3.2278,3.2291,3.23,3.2316,3.2322,3.2335,3.2346,3.2364,3.2375,3.2387,3.239,3.2391,3.2392,3.2388,3.2389,3.2389,3.2389,3.239,3.239,3.239,3.239,0,3.2213,3.2219,3.2233,3.2247,3.2258,3.227,3.2282,3.2287,3.2303,3.2311,3.2324,3.2333,3.2349,3.2361,3.2374,3.2382,3.2388,3.239,3.2391,3.2388,3.2382,3.2384,3.2385,3.239,3.239,3.239,3.239,3.239,3.2213,3.2221,3.2236,3.225,3.2261,3.2271,3.228,3.2291,3.2302,3.2317,3.2323,3.2336,3.2348,3.2366,3.2374,3.2383,3.2384,3.2386,3.2386,3.2386,3.2385,3.2381,3.2385,3.2385,3.2385,3.2385,3.2385,0,3.2216,3.2226,3.2239,3.2256,3.2266,3.2271,3.2285,3.2292,3.2304,3.2315,3.2326,3.2339,3.235,3.2363,3.2374,3.2379,3.2382,3.2381,3.2381,3.2382,3.2383,3.2381,3.2379,3.2379,3.2379,3.2379,3.2379,3.2379,3.2219,3.2232,3.224,3.2258,3.2268,3.2281,3.2287,3.2297,3.2306,3.2321,3.2331,3.2339,3.235,3.2362,3.2372,3.2375,3.2379,3.2377,3.2381,3.2382,3.2382,3.2383,3.2381,3.2378,3.2378,3.2379,3.2379,3.2379]}]]